Time,TemperatureF,DewpointF,PressureIn,WindDirection,WindDirectionDegrees,WindSpeedMPH,WindSpeedGustMPH,Humidity,HourlyPrecipIn,Conditions,Clouds,dailyrainin,SoftwareType,DateUTC
2013-07-12 00:02:00,59.0,55.1,30.03,WNW,288,0.0,0.0,87,0.00,,---,0.00,VWS V14.00,2013-07-12 05:02:00,
2013-07-12 00:07:00,58.9,55.0,30.03,WNW,288,0.0,0.0,87,0.00,,---,0.00,VWS V14.00,2013-07-12 05:07:00,
2013-07-12 00:12:00,58.7,54.8,30.03,WNW,288,0.0,0.0,87,0.00,,---,0.00,VWS V14.00,2013-07-12 05:12:00,
2013-07-12 00:17:00,58.7,55.2,30.03,WNW,288,0.0,0.0,88,0.00,,---,0.00,VWS V14.00,2013-07-12 05:17:00,
2013-07-12 00:22:00,58.7,55.5,30.03,WNW,288,0.0,0.0,89,0.00,,---,0.00,VWS V14.00,2013-07-12 05:22:00,
2013-07-12 00:27:00,58.7,55.5,30.03,WNW,288,0.0,0.0,89,0.00,,---,0.00,VWS V14.00,2013-07-12 05:27:00,
2013-07-12 00:32:00,58.6,55.4,30.04,WNW,288,0.0,0.0,89,0.00,,---,0.00,VWS V14.00,2013-07-12 05:32:00,
2013-07-12 00:37:00,58.4,55.2,30.04,WNW,288,0.0,0.0,89,0.00,,---,0.00,VWS V14.00,2013-07-12 05:37:00,
2013-07-12 00:42:00,58.4,55.2,30.04,WNW,288,0.0,0.0,89,0.00,,---,0.00,VWS V14.00,2013-07-12 05:42:00,
2013-07-12 00:47:00,58.4,55.2,30.04,WNW,288,0.0,0.0,89,0.00,,---,0.00,VWS V14.00,2013-07-12 05:47:00,
2013-07-12 00:52:00,58.1,54.9,30.04,WNW,288,0.0,0.0,89,0.00,,---,0.00,VWS V14.00,2013-07-12 05:52:00,
2013-07-12 00:57:00,58.1,54.9,30.04,WNW,288,0.0,0.0,89,0.00,,---,0.00,VWS V14.00,2013-07-12 05:57:00,
2013-07-12 01:02:00,58.0,54.8,30.04,WNW,288,0.0,0.0,89,0.00,,---,0.00,VWS V14.00,2013-07-12 06:02:00,
2013-07-12 01:07:00,58.0,54.8,30.04,WNW,288,0.0,0.0,89,0.00,,---,0.00,VWS V14.00,2013-07-12 06:07:00,
2013-07-12 01:12:00,58.0,54.8,30.04,WNW,288,0.0,0.0,89,0.00,,---,0.00,VWS V14.00,2013-07-12 06:12:00,
2013-07-12 01:18:00,57.8,54.6,30.04,WNW,288,0.0,0.0,89,0.00,,---,0.00,VWS V14.00,2013-07-12 06:18:00,
2013-07-12 01:23:00,57.6,54.4,30.04,WNW,288,0.0,0.0,89,0.00,,---,0.00,VWS V14.00,2013-07-12 06:23:00,
2013-07-12 01:28:00,57.5,54.3,30.04,WNW,288,0.0,0.0,89,0.00,,---,0.00,VWS V14.00,2013-07-12 06:28:00,
2013-07-12 01:33:00,57.5,54.0,30.04,WNW,288,0.0,0.0,88,0.00,,---,0.00,VWS V14.00,2013-07-12 06:33:00,
2013-07-12 01:38:00,57.5,54.3,30.04,WNW,288,0.0,0.0,89,0.00,,---,0.00,VWS V14.00,2013-07-12 06:38:00,
2013-07-12 01:43:00,57.6,54.4,30.04,WNW,288,0.0,0.0,89,0.00,,---,0.00,VWS V14.00,2013-07-12 06:43:00,
2013-07-12 01:48:00,57.8,54.9,30.04,WNW,288,0.0,0.0,90,0.00,,---,0.00,VWS V14.00,2013-07-12 06:48:00,
2013-07-12 01:53:00,57.8,54.9,30.04,WNW,288,0.0,0.0,90,0.00,,---,0.00,VWS V14.00,2013-07-12 06:53:00,
2013-07-12 01:58:00,57.6,54.7,30.04,WNW,288,0.0,0.0,90,0.00,,---,0.00,VWS V14.00,2013-07-12 06:58:00,
2013-07-12 02:03:00,57.5,54.6,30.05,WNW,288,0.0,0.0,90,0.00,,---,0.00,VWS V14.00,2013-07-12 07:03:00,
2013-07-12 02:09:00,57.5,54.9,30.05,WNW,288,0.0,0.0,91,0.00,,---,0.00,VWS V14.00,2013-07-12 07:09:00,
2013-07-12 02:14:00,57.3,54.7,30.05,WNW,288,0.0,0.0,91,0.00,,---,0.00,VWS V14.00,2013-07-12 07:14:00,
2013-07-12 02:19:00,57.2,54.6,30.05,WNW,288,0.0,0.0,91,0.00,,---,0.00,VWS V14.00,2013-07-12 07:19:00,
2013-07-12 02:24:00,57.0,54.4,30.05,WNW,288,0.0,0.0,91,0.00,,---,0.00,VWS V14.00,2013-07-12 07:24:00,
2013-07-12 02:29:00,56.9,54.3,30.05,WNW,288,0.0,0.0,91,0.00,,---,0.00,VWS V14.00,2013-07-12 07:29:00,
2013-07-12 02:34:00,56.7,54.1,30.05,WNW,288,0.0,0.0,91,0.00,,---,0.00,VWS V14.00,2013-07-12 07:34:00,
2013-07-12 02:39:00,56.7,54.4,30.05,WNW,288,0.0,0.0,92,0.00,,---,0.00,VWS V14.00,2013-07-12 07:39:00,
2013-07-12 02:44:00,56.6,54.3,30.05,WNW,288,0.0,0.0,92,0.00,,---,0.00,VWS V14.00,2013-07-12 07:44:00,
2013-07-12 02:49:00,56.5,54.2,30.05,WNW,288,0.0,0.0,92,0.00,,---,0.00,VWS V14.00,2013-07-12 07:49:00,
2013-07-12 02:54:00,56.5,54.2,30.05,WNW,288,0.0,0.0,92,0.00,,---,0.00,VWS V14.00,2013-07-12 07:54:00,
2013-07-12 02:59:00,56.5,54.2,30.05,WNW,288,0.0,0.0,92,0.00,,---,0.00,VWS V14.00,2013-07-12 07:59:00,
2013-07-12 03:04:00,56.6,54.3,30.05,WNW,288,0.0,0.0,92,0.00,,---,0.00,VWS V14.00,2013-07-12 08:04:00,
2013-07-12 03:10:00,56.7,54.4,30.05,WNW,288,0.0,0.0,92,0.00,,---,0.00,VWS V14.00,2013-07-12 08:10:00,
2013-07-12 03:15:00,56.9,54.3,30.05,WNW,288,0.0,0.0,91,0.00,,---,0.00,VWS V14.00,2013-07-12 08:15:00,
2013-07-12 03:20:00,56.7,54.1,30.05,WNW,288,0.0,0.0,91,0.00,,---,0.00,VWS V14.00,2013-07-12 08:20:00,
2013-07-12 03:25:00,56.7,53.8,30.05,WNW,288,0.0,0.0,90,0.00,,---,0.00,VWS V14.00,2013-07-12 08:25:00,
2013-07-12 03:30:00,56.9,54.0,30.05,WNW,288,0.0,0.0,90,0.00,,---,0.00,VWS V14.00,2013-07-12 08:30:00,
2013-07-12 03:35:00,56.9,53.7,30.06,WNW,288,0.0,0.0,89,0.00,,---,0.00,VWS V14.00,2013-07-12 08:35:00,
2013-07-12 03:40:00,56.9,53.7,30.06,WNW,288,0.0,0.0,89,0.00,,---,0.00,VWS V14.00,2013-07-12 08:40:00,
2013-07-12 03:45:00,56.9,53.7,30.06,WNW,288,0.0,0.0,89,0.00,,---,0.00,VWS V14.00,2013-07-12 08:45:00,
2013-07-12 03:50:00,56.7,53.5,30.06,WNW,288,0.0,0.0,89,0.00,,---,0.00,VWS V14.00,2013-07-12 08:50:00,
2013-07-12 03:55:00,56.6,53.7,30.06,WNW,288,0.0,0.0,90,0.00,,---,0.00,VWS V14.00,2013-07-12 08:55:00,
2013-07-12 04:00:00,56.6,53.7,30.06,WNW,288,0.0,0.0,90,0.00,,---,0.00,VWS V14.00,2013-07-12 09:00:00,
2013-07-12 04:01:00,56.6,53.7,30.06,WNW,288,0.0,0.0,90,0.00,,---,0.00,VWS V14.00,2013-07-12 09:01:00,
2013-07-12 04:06:00,56.5,53.6,30.06,WNW,288,0.0,0.0,90,0.00,,---,0.00,VWS V14.00,2013-07-12 09:06:00,
2013-07-12 04:11:00,56.5,53.6,30.06,WNW,288,0.0,0.0,90,0.00,,---,0.00,VWS V14.00,2013-07-12 09:11:00,
2013-07-12 04:16:00,56.3,53.7,30.06,WNW,288,0.0,0.0,91,0.00,,---,0.00,VWS V14.00,2013-07-12 09:16:00,
2013-07-12 04:21:00,56.2,53.6,30.06,WNW,288,0.0,0.0,91,0.00,,---,0.00,VWS V14.00,2013-07-12 09:21:00,
2013-07-12 04:26:00,56.3,54.0,30.06,WNW,288,2.0,3.0,92,0.00,,---,0.00,VWS V14.00,2013-07-12 09:26:00,
2013-07-12 04:31:00,57.0,55.0,30.06,WNW,288,0.0,0.0,93,0.00,,---,0.00,VWS V14.00,2013-07-12 09:31:00,
2013-07-12 04:36:00,57.6,55.3,30.06,WNW,288,1.0,3.0,92,0.00,,---,0.00,VWS V14.00,2013-07-12 09:36:00,
2013-07-12 04:41:00,58.0,55.4,30.06,WNW,288,2.0,3.0,91,0.00,,---,0.00,VWS V14.00,2013-07-12 09:41:00,
2013-07-12 04:46:00,58.3,55.4,30.06,WNW,288,2.0,2.0,90,0.00,,---,0.00,VWS V14.00,2013-07-12 09:46:00,
2013-07-12 04:51:00,58.4,55.2,30.06,WNW,288,0.0,0.0,89,0.00,,---,0.00,VWS V14.00,2013-07-12 09:51:00,
2013-07-12 04:56:00,58.4,55.2,30.06,WNW,288,0.0,0.0,89,0.00,,---,0.00,VWS V14.00,2013-07-12 09:56:00,
2013-07-12 05:01:00,58.4,54.5,30.07,WNW,288,1.0,2.0,87,0.00,,---,0.00,VWS V14.00,2013-07-12 10:01:00,
2013-07-12 05:07:00,58.6,54.1,30.07,WNW,288,2.0,3.0,85,0.00,,---,0.00,VWS V14.00,2013-07-12 10:07:00,
2013-07-12 05:12:00,58.7,54.2,30.07,WNW,288,3.0,4.0,85,0.00,,---,0.00,VWS V14.00,2013-07-12 10:12:00,
2013-07-12 05:17:00,58.7,53.9,30.07,WNW,288,3.0,3.0,84,0.00,,---,0.00,VWS V14.00,2013-07-12 10:17:00,
2013-07-12 05:22:00,58.6,53.8,30.07,WNW,288,2.0,4.0,84,0.00,,---,0.00,VWS V14.00,2013-07-12 10:22:00,
2013-07-12 05:27:00,58.4,53.6,30.07,WNW,288,0.0,0.0,84,0.00,,---,0.00,VWS V14.00,2013-07-12 10:27:00,
2013-07-12 05:32:00,58.3,53.5,30.07,WNW,288,0.0,0.0,84,0.00,,---,0.00,VWS V14.00,2013-07-12 10:32:00,
2013-07-12 05:37:00,58.0,53.2,30.07,WNW,288,0.0,0.0,84,0.00,,---,0.00,VWS V14.00,2013-07-12 10:37:00,
2013-07-12 05:42:00,57.6,52.5,30.07,WNW,288,0.0,0.0,83,0.00,,---,0.00,VWS V14.00,2013-07-12 10:42:00,
2013-07-12 05:47:00,57.3,52.5,30.07,WNW,288,0.0,0.0,84,0.00,,---,0.00,VWS V14.00,2013-07-12 10:47:00,
2013-07-12 05:52:00,57.0,52.2,30.07,WNW,288,0.0,0.0,84,0.00,,---,0.00,VWS V14.00,2013-07-12 10:52:00,
2013-07-12 05:57:00,56.7,52.2,30.07,WNW,288,0.0,0.0,85,0.00,,---,0.00,VWS V14.00,2013-07-12 10:57:00,
2013-07-12 06:02:00,56.6,52.5,30.08,WNW,288,0.0,1.0,86,0.00,,---,0.00,VWS V14.00,2013-07-12 11:02:00,
2013-07-12 06:08:00,56.7,52.6,30.08,WNW,288,1.0,1.0,86,0.00,,---,0.00,VWS V14.00,2013-07-12 11:08:00,
2013-07-12 06:13:00,56.9,53.1,30.08,WNW,288,0.0,0.0,87,0.00,,---,0.00,VWS V14.00,2013-07-12 11:13:00,
2013-07-12 06:18:00,57.0,53.2,30.08,WNW,288,0.0,0.0,87,0.00,,---,0.00,VWS V14.00,2013-07-12 11:18:00,
2013-07-12 06:23:00,57.3,53.5,30.08,WNW,288,0.0,0.0,87,0.00,,---,0.00,VWS V14.00,2013-07-12 11:23:00,
2013-07-12 06:28:00,57.6,53.8,30.08,WNW,288,0.0,0.0,87,0.00,,---,0.00,VWS V14.00,2013-07-12 11:28:00,
2013-07-12 06:33:00,57.8,53.7,30.08,WNW,288,0.0,0.0,86,0.00,,---,0.00,VWS V14.00,2013-07-12 11:33:00,
2013-07-12 06:38:00,58.1,53.9,30.08,WNW,288,0.0,0.0,86,0.00,,---,0.00,VWS V14.00,2013-07-12 11:38:00,
2013-07-12 06:43:00,58.4,53.9,30.08,WNW,288,0.0,0.0,85,0.00,,---,0.00,VWS V14.00,2013-07-12 11:43:00,
2013-07-12 06:48:00,58.7,53.9,30.08,WNW,288,3.0,3.0,84,0.00,,---,0.00,VWS V14.00,2013-07-12 11:48:00,
2013-07-12 06:53:00,59.2,54.0,30.08,WNW,288,2.0,3.0,83,0.00,,---,0.00,VWS V14.00,2013-07-12 11:53:00,
2013-07-12 06:58:00,59.5,54.3,30.08,WNW,288,2.0,3.0,83,0.00,,---,0.00,VWS V14.00,2013-07-12 11:58:00,
2013-07-12 07:03:00,59.8,54.6,30.07,WNW,288,0.0,0.0,83,0.00,,---,0.00,VWS V14.00,2013-07-12 12:03:00,
2013-07-12 07:09:00,60.1,55.3,30.07,WNW,288,0.0,0.0,84,0.00,,---,0.00,VWS V14.00,2013-07-12 12:09:00,
2013-07-12 07:14:00,60.2,55.3,30.07,WNW,288,1.0,2.0,84,0.00,,---,0.00,VWS V14.00,2013-07-12 12:14:00,
2013-07-12 07:19:00,60.4,55.5,30.08,WNW,288,0.0,0.0,84,0.00,,---,0.00,VWS V14.00,2013-07-12 12:19:00,
2013-07-12 07:24:00,60.5,56.0,30.08,WNW,288,0.0,0.0,85,0.00,,---,0.00,VWS V14.00,2013-07-12 12:24:00,
2013-07-12 07:29:00,60.9,56.4,30.08,WNW,288,0.0,0.0,85,0.00,,---,0.00,VWS V14.00,2013-07-12 12:29:00,
2013-07-12 07:34:00,61.2,57.0,30.08,WNW,288,0.0,0.0,86,0.00,,---,0.00,VWS V14.00,2013-07-12 12:34:00,
2013-07-12 07:39:00,61.3,57.1,30.08,WNW,288,0.0,0.0,86,0.00,,---,0.00,VWS V14.00,2013-07-12 12:39:00,
2013-07-12 07:44:00,61.6,57.4,30.08,WNW,288,0.0,0.0,86,0.00,,---,0.00,VWS V14.00,2013-07-12 12:44:00,
2013-07-12 07:49:00,62.0,58.1,30.07,WNW,288,0.0,0.0,87,0.00,,---,0.00,VWS V14.00,2013-07-12 12:49:00,
2013-07-12 07:54:00,62.1,58.2,30.07,WNW,288,0.0,0.0,87,0.00,,---,0.00,VWS V14.00,2013-07-12 12:54:00,
2013-07-12 08:00:00,62.4,58.5,30.07,WNW,288,0.0,0.0,87,0.00,,---,0.00,VWS V14.00,2013-07-12 13:00:00,
2013-07-12 08:05:00,62.7,59.1,30.07,WNW,288,0.0,0.0,88,0.00,,---,0.00,VWS V14.00,2013-07-12 13:05:00,
2013-07-12 08:10:00,63.1,59.2,30.07,WNW,288,0.0,0.0,87,0.00,,---,0.00,VWS V14.00,2013-07-12 13:10:00,
2013-07-12 08:15:00,63.5,59.2,30.07,WNW,288,0.0,1.0,86,0.00,,---,0.00,VWS V14.00,2013-07-12 13:15:00,
2013-07-12 08:20:00,63.9,59.3,30.09,WNW,288,0.0,0.0,85,0.00,,---,0.00,VWS V14.00,2013-07-12 13:20:00,
2013-07-12 08:25:00,64.3,59.7,30.09,WNW,288,0.0,0.0,85,0.00,,---,0.00,VWS V14.00,2013-07-12 13:25:00,
2013-07-12 08:30:00,64.7,59.4,30.09,WNW,288,0.0,0.0,83,0.00,,---,0.00,VWS V14.00,2013-07-12 13:30:00,
2013-07-12 08:35:00,65.3,59.3,30.09,WNW,288,0.0,0.0,81,0.00,,---,0.00,VWS V14.00,2013-07-12 13:35:00,
2013-07-12 08:41:00,66.1,59.4,30.09,WNW,288,0.0,0.0,79,0.00,,---,0.00,VWS V14.00,2013-07-12 13:41:00,
2013-07-12 08:46:00,66.9,58.3,30.09,WNW,288,0.0,0.0,74,0.00,,---,0.00,VWS V14.00,2013-07-12 13:46:00,
2013-07-12 08:51:00,67.8,57.7,30.10,WNW,288,0.0,0.0,70,0.00,,---,0.00,VWS V14.00,2013-07-12 13:51:00,
2013-07-12 08:56:00,68.9,57.5,30.10,WNW,288,0.0,0.0,67,0.00,,---,0.00,VWS V14.00,2013-07-12 13:56:00,
2013-07-12 09:01:00,70.1,58.7,30.10,WNW,288,0.0,0.0,67,0.00,,---,0.00,VWS V14.00,2013-07-12 14:01:00,
2013-07-12 09:06:00,71.1,57.4,30.09,WNW,288,0.0,0.0,62,0.00,,---,0.00,VWS V14.00,2013-07-12 14:06:00,
2013-07-12 09:11:00,72.1,56.5,30.09,WNW,288,0.0,0.0,58,0.00,,---,0.00,VWS V14.00,2013-07-12 14:11:00,
2013-07-12 09:16:00,72.8,56.7,30.10,WNW,288,0.0,0.0,57,0.00,,---,0.00,VWS V14.00,2013-07-12 14:16:00,
2013-07-12 09:21:00,73.9,56.2,30.10,WNW,288,0.0,0.0,54,0.00,,---,0.00,VWS V14.00,2013-07-12 14:21:00,
2013-07-12 09:26:00,74.7,56.5,30.10,WNW,288,0.0,0.0,53,0.00,,---,0.00,VWS V14.00,2013-07-12 14:26:00,
2013-07-12 09:31:00,75.3,53.7,30.10,WNW,288,0.0,0.0,47,0.00,,---,0.00,VWS V14.00,2013-07-12 14:31:00,
2013-07-12 09:37:00,75.8,56.9,30.10,WNW,288,0.0,0.0,52,0.00,,---,0.00,VWS V14.00,2013-07-12 14:37:00,
2013-07-12 09:41:00,76.5,57.6,30.10,WNW,288,3.0,4.0,52,0.00,,---,0.00,VWS V14.00,2013-07-12 14:41:00,
2013-07-12 09:47:00,76.1,56.1,30.09,WNW,288,0.0,0.0,50,0.00,,---,0.00,VWS V14.00,2013-07-12 14:47:00,
2013-07-12 09:52:00,76.7,57.2,30.09,WNW,288,0.0,0.0,51,0.00,,---,0.00,VWS V14.00,2013-07-12 14:52:00,
2013-07-12 09:57:00,76.5,57.6,30.09,WNW,288,1.0,1.0,52,0.00,,---,0.00,VWS V14.00,2013-07-12 14:57:00,
2013-07-12 10:02:00,76.5,58.1,30.09,WNW,288,0.0,0.0,53,0.00,,---,0.00,VWS V14.00,2013-07-12 15:02:00,
2013-07-12 10:07:00,76.1,54.4,30.09,WNW,288,2.0,5.0,47,0.00,,---,0.00,VWS V14.00,2013-07-12 15:07:00,
2013-07-12 10:12:00,75.6,55.1,30.09,WNW,288,0.0,0.0,49,0.00,,---,0.00,VWS V14.00,2013-07-12 15:12:00,
2013-07-12 10:17:00,76.3,56.9,30.09,WNW,288,0.0,0.0,51,0.00,,---,0.00,VWS V14.00,2013-07-12 15:17:00,
2013-07-12 10:22:00,76.7,56.1,30.09,WNW,288,0.0,0.0,49,0.00,,---,0.00,VWS V14.00,2013-07-12 15:22:00,
2013-07-12 10:27:00,76.8,56.2,30.09,WNW,288,0.0,0.0,49,0.00,,---,0.00,VWS V14.00,2013-07-12 15:27:00,
2013-07-12 10:32:00,77.2,52.4,30.09,WNW,288,0.0,0.0,42,0.00,,---,0.00,VWS V14.00,2013-07-12 15:32:00,
2013-07-12 10:37:00,77.9,53.0,30.09,WNW,288,0.0,0.0,42,0.00,,---,0.00,VWS V14.00,2013-07-12 15:37:00,
2013-07-12 10:42:00,77.7,53.5,30.09,WNW,288,0.0,0.0,43,0.00,,---,0.00,VWS V14.00,2013-07-12 15:42:00,
2013-07-12 10:47:00,78.1,54.4,30.09,WNW,288,0.0,0.0,44,0.00,,---,0.00,VWS V14.00,2013-07-12 15:47:00,
2013-07-12 10:52:00,78.1,55.0,30.09,WNW,289,0.0,0.0,45,0.00,,---,0.00,VWS V14.00,2013-07-12 15:52:00,
2013-07-12 10:57:00,78.6,53.6,30.09,WNW,288,0.0,0.0,42,0.00,,---,0.00,VWS V14.00,2013-07-12 15:57:00,
2013-07-12 11:02:00,79.0,54.6,30.08,WNW,288,0.0,0.0,43,0.00,,---,0.00,VWS V14.00,2013-07-12 16:02:00,
2013-07-12 11:08:00,78.3,56.4,30.08,WNW,288,0.0,0.0,47,0.00,,---,0.00,VWS V14.00,2013-07-12 16:08:00,
2013-07-12 11:13:00,78.6,56.1,30.08,WNW,288,0.0,0.0,46,0.00,,---,0.00,VWS V14.00,2013-07-12 16:13:00,
2013-07-12 11:18:00,78.8,56.9,30.09,WNW,287,3.0,5.0,47,0.00,,---,0.00,VWS V14.00,2013-07-12 16:18:00,
2013-07-12 11:23:00,78.5,58.3,30.09,WNW,287,0.0,0.0,50,0.00,,---,0.00,VWS V14.00,2013-07-12 16:23:00,
2013-07-12 11:28:00,78.8,58.0,30.09,WNW,287,0.0,0.0,49,0.00,,---,0.00,VWS V14.00,2013-07-12 16:28:00,
2013-07-12 11:33:00,79.0,58.8,30.09,WNW,287,0.0,0.0,50,0.00,,---,0.00,VWS V14.00,2013-07-12 16:33:00,
2013-07-12 11:38:00,79.4,58.0,30.09,WNW,292,0.0,3.0,48,0.00,,---,0.00,VWS V14.00,2013-07-12 16:38:00,
2013-07-12 11:43:00,79.8,58.4,30.09,WNW,292,0.0,2.0,48,0.00,,---,0.00,VWS V14.00,2013-07-12 16:43:00,
2013-07-12 11:48:00,79.9,57.3,30.09,WNW,292,3.0,4.0,46,0.00,,---,0.00,VWS V14.00,2013-07-12 16:48:00,
2013-07-12 11:53:00,79.8,56.6,30.09,WNW,292,0.0,0.0,45,0.00,,---,0.00,VWS V14.00,2013-07-12 16:53:00,
2013-07-12 11:58:00,79.8,57.2,30.09,WNW,292,1.0,2.0,46,0.00,,---,0.00,VWS V14.00,2013-07-12 16:58:00,
2013-07-12 12:04:00,79.6,56.4,30.09,WNW,292,2.0,4.0,45,0.00,,---,0.00,VWS V14.00,2013-07-12 17:04:00,
2013-07-12 12:09:00,79.9,55.4,30.09,WNW,292,0.0,0.0,43,0.00,,---,0.00,VWS V14.00,2013-07-12 17:09:00,
2013-07-12 12:14:00,80.3,54.5,30.09,WNW,292,0.0,0.0,41,0.00,,---,0.00,VWS V14.00,2013-07-12 17:14:00,
2013-07-12 12:19:00,80.7,58.0,30.09,WNW,292,0.0,0.0,46,0.00,,---,0.00,VWS V14.00,2013-07-12 17:19:00,
2013-07-12 12:25:00,81.1,55.9,30.09,WNW,292,0.0,0.0,42,0.00,,---,0.00,VWS V14.00,2013-07-12 17:25:00,
2013-07-12 12:30:00,81.2,53.9,30.09,WNW,292,0.0,4.0,39,0.00,,---,0.00,VWS V14.00,2013-07-12 17:30:00,
2013-07-12 12:35:00,81.4,56.8,30.08,WNW,292,0.0,1.0,43,0.00,,---,0.00,VWS V14.00,2013-07-12 17:35:00,
2013-07-12 12:40:00,81.2,54.6,30.08,WNW,292,0.0,0.0,40,0.00,,---,0.00,VWS V14.00,2013-07-12 17:40:00,
2013-07-12 12:45:00,81.2,54.6,30.08,WNW,292,0.0,1.0,40,0.00,,---,0.00,VWS V14.00,2013-07-12 17:45:00,
2013-07-12 12:50:00,81.1,55.2,30.08,WNW,292,1.0,4.0,41,0.00,,---,0.00,VWS V14.00,2013-07-12 17:50:00,
2013-07-12 12:55:00,81.2,55.3,30.08,WNW,292,0.0,0.0,41,0.00,,---,0.00,VWS V14.00,2013-07-12 17:55:00,
2013-07-12 13:01:00,81.2,51.0,30.08,WNW,292,1.0,4.0,35,0.00,,---,0.00,VWS V14.00,2013-07-12 18:01:00,
2013-07-12 13:06:00,81.2,57.9,30.08,WNW,292,0.0,2.0,45,0.00,,---,0.00,VWS V14.00,2013-07-12 18:06:00,
2013-07-12 13:11:00,81.2,56.6,30.08,WNW,292,0.0,0.0,43,0.00,,---,0.00,VWS V14.00,2013-07-12 18:11:00,
2013-07-12 13:16:00,81.1,53.8,30.07,WNW,292,0.0,1.0,39,0.00,,---,0.00,VWS V14.00,2013-07-12 18:16:00,
2013-07-12 13:21:00,81.1,52.4,30.07,WNW,292,0.0,1.0,37,0.00,,---,0.00,VWS V14.00,2013-07-12 18:21:00,
2013-07-12 13:27:00,81.2,55.3,30.07,WNW,292,3.0,3.0,41,0.00,,---,0.00,VWS V14.00,2013-07-12 18:27:00,
2013-07-12 13:32:00,81.4,58.7,30.07,WNW,292,0.0,0.0,46,0.00,,---,0.00,VWS V14.00,2013-07-12 18:32:00,
2013-07-12 13:37:00,81.2,56.6,30.07,WNW,292,2.0,2.0,43,0.00,,---,0.00,VWS V14.00,2013-07-12 18:37:00,
2013-07-12 13:42:00,81.4,56.8,30.07,WNW,292,0.0,0.0,43,0.00,,---,0.00,VWS V14.00,2013-07-12 18:42:00,
2013-07-12 13:47:00,81.6,55.0,30.07,WNW,292,0.0,0.0,40,0.00,,---,0.00,VWS V14.00,2013-07-12 18:47:00,
2013-07-12 13:52:00,81.1,54.5,30.07,WNW,292,2.0,2.0,40,0.00,,---,0.00,VWS V14.00,2013-07-12 18:52:00,
2013-07-12 13:58:00,81.2,55.3,30.07,WNW,292,0.0,0.0,41,0.00,,---,0.00,VWS V14.00,2013-07-12 18:58:00,
2013-07-12 14:03:00,81.6,52.1,30.06,WNW,292,0.0,0.0,36,0.00,,---,0.00,VWS V14.00,2013-07-12 19:03:00,
2013-07-12 14:08:00,81.4,55.5,30.06,WNW,292,0.0,0.0,41,0.00,,---,0.00,VWS V14.00,2013-07-12 19:08:00,
2013-07-12 14:13:00,81.2,56.6,30.06,WNW,292,0.0,0.0,43,0.00,,---,0.00,VWS V14.00,2013-07-12 19:13:00,
2013-07-12 14:18:00,81.2,55.3,30.06,WNW,292,0.0,0.0,41,0.00,,---,0.00,VWS V14.00,2013-07-12 19:18:00,
2013-07-12 14:24:00,81.8,55.8,30.06,WNW,292,0.0,0.0,41,0.00,,---,0.00,VWS V14.00,2013-07-12 19:24:00,
2013-07-12 14:29:00,82.4,51.2,30.06,WNW,292,0.0,0.0,34,0.00,,---,0.00,VWS V14.00,2013-07-12 19:29:00,
2013-07-12 14:34:00,83.0,56.9,30.06,WNW,292,0.0,0.0,41,0.00,,---,0.00,VWS V14.00,2013-07-12 19:34:00,
2013-07-12 14:40:00,83.4,56.6,30.06,WNW,292,0.0,0.0,40,0.00,,---,0.00,VWS V14.00,2013-07-12 19:40:00,
2013-07-12 14:45:00,83.4,51.3,30.06,WNW,292,0.0,0.0,33,0.00,,---,0.00,VWS V14.00,2013-07-12 19:45:00,
2013-07-12 14:50:00,81.4,52.7,30.06,WNW,292,0.0,4.0,37,0.00,,---,0.00,VWS V14.00,2013-07-12 19:50:00,
2013-07-12 14:55:00,81.1,55.2,30.06,WNW,292,0.0,0.0,41,0.00,,---,0.00,VWS V14.00,2013-07-12 19:55:00,
2013-07-12 15:01:00,81.6,56.3,30.06,WNW,292,0.0,1.0,42,0.00,,---,0.00,VWS V14.00,2013-07-12 20:01:00,
2013-07-12 15:06:00,81.8,53.0,30.05,WNW,292,3.0,3.0,37,0.00,,---,0.00,VWS V14.00,2013-07-12 20:06:00,
2013-07-12 15:11:00,81.8,53.7,30.05,WNW,292,0.0,0.0,38,0.00,,---,0.00,VWS V14.00,2013-07-12 20:11:00,
2013-07-12 15:16:00,81.4,54.1,30.05,WNW,292,0.0,0.0,39,0.00,,---,0.00,VWS V14.00,2013-07-12 20:16:00,
2013-07-12 15:21:00,82.0,50.9,30.05,WNW,292,0.0,0.0,34,0.00,,---,0.00,VWS V14.00,2013-07-12 20:21:00,
2013-07-12 15:27:00,82.4,57.0,30.05,WNW,292,0.0,0.0,42,0.00,,---,0.00,VWS V14.00,2013-07-12 20:27:00,
2013-07-12 15:32:00,82.4,57.0,30.04,WNW,292,3.0,3.0,42,0.00,,---,0.00,VWS V14.00,2013-07-12 20:32:00,
2013-07-12 15:37:00,81.6,53.6,30.04,WNW,292,0.0,0.0,38,0.00,,---,0.00,VWS V14.00,2013-07-12 20:37:00,
2013-07-12 15:42:00,82.0,55.3,30.04,WNW,292,0.0,0.0,40,0.00,,---,0.00,VWS V14.00,2013-07-12 20:42:00,
2013-07-12 15:47:00,82.8,53.9,30.04,WNW,292,0.0,0.0,37,0.00,,---,0.00,VWS V14.00,2013-07-12 20:47:00,
2013-07-12 15:52:00,83.2,55.0,30.04,WNW,292,0.0,0.0,38,0.00,,---,0.00,VWS V14.00,2013-07-12 20:52:00,
2013-07-12 15:58:00,83.8,58.9,30.04,WNW,292,0.0,0.0,43,0.00,,---,0.00,VWS V14.00,2013-07-12 20:58:00,
2013-07-12 16:03:00,83.8,55.5,30.04,WNW,292,0.0,2.0,38,0.00,,---,0.00,VWS V14.00,2013-07-12 21:03:00,
2013-07-12 16:08:00,83.6,56.8,30.04,WNW,292,0.0,1.0,40,0.00,,---,0.00,VWS V14.00,2013-07-12 21:08:00,
2013-07-12 16:13:00,83.4,57.3,30.04,WNW,292,0.0,3.0,41,0.00,,---,0.00,VWS V14.00,2013-07-12 21:13:00,
2013-07-12 16:18:00,83.4,60.5,30.04,WNW,292,0.0,0.0,46,0.00,,---,0.00,VWS V14.00,2013-07-12 21:18:00,
2013-07-12 16:23:00,83.6,55.3,30.04,WNW,292,2.0,5.0,38,0.00,,---,0.00,VWS V14.00,2013-07-12 21:23:00,
2013-07-12 16:28:00,83.6,59.4,30.04,WNW,292,0.0,0.0,44,0.00,,---,0.00,VWS V14.00,2013-07-12 21:28:00,
2013-07-12 16:33:00,84.0,61.0,30.04,WNW,292,0.0,0.0,46,0.00,,---,0.00,VWS V14.00,2013-07-12 21:33:00,
2013-07-12 16:38:00,84.1,60.5,30.04,WNW,292,0.0,0.0,45,0.00,,---,0.00,VWS V14.00,2013-07-12 21:38:00,
2013-07-12 16:43:00,84.3,60.7,30.04,WNW,292,0.0,0.0,45,0.00,,---,0.00,VWS V14.00,2013-07-12 21:43:00,
2013-07-12 16:48:00,84.5,59.6,30.04,WNW,292,0.0,0.0,43,0.00,,---,0.00,VWS V14.00,2013-07-12 21:48:00,
2013-07-12 16:53:00,84.3,58.1,30.04,WNW,292,0.0,0.0,41,0.00,,---,0.00,VWS V14.00,2013-07-12 21:53:00,
2013-07-12 16:59:00,84.5,61.5,30.04,WNW,292,0.0,0.0,46,0.00,,---,0.00,VWS V14.00,2013-07-12 21:59:00,
2013-07-12 17:04:00,84.7,62.9,30.03,WNW,292,0.0,0.0,48,0.00,,---,0.00,VWS V14.00,2013-07-12 22:04:00,
2013-07-12 17:09:00,83.4,60.5,30.03,WNW,292,0.0,0.0,46,0.00,,---,0.00,VWS V14.00,2013-07-12 22:09:00,
2013-07-12 17:14:00,83.4,61.1,30.03,WNW,292,0.0,0.0,47,0.00,,---,0.00,VWS V14.00,2013-07-12 22:14:00,
2013-07-12 17:20:00,83.8,62.0,30.03,WNW,292,0.0,0.0,48,0.00,,---,0.00,VWS V14.00,2013-07-12 22:20:00,
2013-07-12 17:25:00,84.0,61.6,30.03,WNW,292,0.0,0.0,47,0.00,,---,0.00,VWS V14.00,2013-07-12 22:25:00,
2013-07-12 17:30:00,82.4,61.3,30.03,WNW,292,0.0,0.0,49,0.00,,---,0.00,VWS V14.00,2013-07-12 22:30:00,
2013-07-12 17:35:00,81.4,58.7,30.03,WNW,292,0.0,1.0,46,0.00,,---,0.00,VWS V14.00,2013-07-12 22:35:00,
2013-07-12 17:41:00,81.2,62.5,30.03,WNW,292,0.0,0.0,53,0.00,,---,0.00,VWS V14.00,2013-07-12 22:41:00,
2013-07-12 17:46:00,81.6,61.7,30.03,WNW,292,0.0,0.0,51,0.00,,---,0.00,VWS V14.00,2013-07-12 22:46:00,
2013-07-12 17:51:00,81.4,60.4,30.02,WNW,292,0.0,0.0,49,0.00,,---,0.00,VWS V14.00,2013-07-12 22:51:00,
2013-07-12 17:56:00,81.6,62.3,30.02,WNW,292,0.0,0.0,52,0.00,,---,0.00,VWS V14.00,2013-07-12 22:56:00,
2013-07-12 18:01:00,81.8,60.8,30.02,WNW,292,0.0,0.0,49,0.00,,---,0.00,VWS V14.00,2013-07-12 23:01:00,
2013-07-12 18:06:00,81.4,60.4,30.02,WNW,292,0.0,2.0,49,0.00,,---,0.00,VWS V14.00,2013-07-12 23:06:00,
2013-07-12 18:11:00,80.3,62.2,30.02,WNW,292,0.0,0.0,54,0.00,,---,0.00,VWS V14.00,2013-07-12 23:11:00,
2013-07-12 18:16:00,79.9,62.8,30.02,WNW,292,0.0,0.0,56,0.00,,---,0.00,VWS V14.00,2013-07-12 23:16:00,
2013-07-12 18:22:00,79.9,62.3,30.02,WNW,292,0.0,0.0,55,0.00,,---,0.00,VWS V14.00,2013-07-12 23:22:00,
2013-07-12 18:27:00,79.8,61.7,30.02,WNW,292,0.0,0.0,54,0.00,,---,0.00,VWS V14.00,2013-07-12 23:27:00,
2013-07-12 18:33:00,79.8,62.7,30.02,WNW,292,0.0,0.0,56,0.00,,---,0.00,VWS V14.00,2013-07-12 23:33:00,
2013-07-12 18:38:00,80.1,63.0,30.02,WNW,292,0.0,0.0,56,0.00,,---,0.00,VWS V14.00,2013-07-12 23:38:00,
2013-07-12 18:43:00,80.7,62.5,30.02,WNW,292,0.0,0.0,54,0.00,,---,0.00,VWS V14.00,2013-07-12 23:43:00,
2013-07-12 18:48:00,81.1,62.9,30.01,WNW,292,0.0,0.0,54,0.00,,---,0.00,VWS V14.00,2013-07-12 23:48:00,
2013-07-12 18:53:00,81.2,62.5,30.01,WNW,292,0.0,0.0,53,0.00,,---,0.00,VWS V14.00,2013-07-12 23:53:00,
2013-07-12 18:59:00,80.9,63.2,30.01,WNW,292,0.0,0.0,55,0.00,,---,0.00,VWS V14.00,2013-07-12 23:59:00,
2013-07-12 19:04:00,80.5,63.4,30.02,WNW,292,0.0,0.0,56,0.00,,---,0.00,VWS V14.00,2013-07-13 00:04:00,
2013-07-12 19:09:00,79.8,62.7,30.02,WNW,292,0.0,0.0,56,0.00,,---,0.00,VWS V14.00,2013-07-13 00:09:00,
2013-07-12 19:15:00,79.4,62.9,30.02,WNW,292,0.0,0.0,57,0.00,,---,0.00,VWS V14.00,2013-07-13 00:15:00,
2013-07-12 19:20:00,78.8,63.3,30.02,WNW,292,0.0,0.0,59,0.00,,---,0.00,VWS V14.00,2013-07-13 00:20:00,
2013-07-12 19:25:00,78.5,64.0,30.02,WNW,292,0.0,0.0,61,0.00,,---,0.00,VWS V14.00,2013-07-13 00:25:00,
2013-07-12 19:30:00,78.1,64.0,30.02,WNW,292,0.0,0.0,62,0.00,,---,0.00,VWS V14.00,2013-07-13 00:30:00,
2013-07-12 19:35:00,77.6,64.5,30.02,WNW,292,0.0,0.0,64,0.00,,---,0.00,VWS V14.00,2013-07-13 00:35:00,
2013-07-12 19:40:00,77.2,64.1,30.02,WNW,292,0.0,0.0,64,0.00,,---,0.00,VWS V14.00,2013-07-13 00:40:00,
2013-07-12 19:46:00,76.8,63.7,30.02,WNW,292,0.0,0.0,64,0.00,,---,0.00,VWS V14.00,2013-07-13 00:46:00,
2013-07-12 19:51:00,76.5,63.4,30.02,WNW,292,0.0,0.0,64,0.00,,---,0.00,VWS V14.00,2013-07-13 00:51:00,
2013-07-12 19:56:00,76.1,63.5,30.02,NW,304,0.0,0.0,65,0.00,,---,0.00,VWS V14.00,2013-07-13 00:56:00,
2013-07-12 20:02:00,75.6,64.7,30.02,NW,304,0.0,0.0,69,0.00,,---,0.00,VWS V14.00,2013-07-13 01:02:00,
2013-07-12 20:07:00,75.1,64.2,30.02,NW,304,0.0,0.0,69,0.00,,---,0.00,VWS V14.00,2013-07-13 01:07:00,
2013-07-12 20:12:00,74.6,63.8,30.02,NW,304,0.0,0.0,69,0.00,,---,0.00,VWS V14.00,2013-07-13 01:12:00,
2013-07-12 20:17:00,73.9,63.1,30.02,NW,304,0.0,0.0,69,0.00,,---,0.00,VWS V14.00,2013-07-13 01:17:00,
2013-07-12 20:22:00,73.5,63.5,30.02,NW,304,0.0,0.0,71,0.00,,---,0.00,VWS V14.00,2013-07-13 01:22:00,
2013-07-12 20:27:00,73.0,63.0,30.02,NW,304,0.0,0.0,71,0.00,,---,0.00,VWS V14.00,2013-07-13 01:27:00,
2013-07-12 20:32:00,72.5,62.6,30.02,NW,304,0.0,0.0,71,0.00,,---,0.00,VWS V14.00,2013-07-13 01:32:00,
2013-07-12 20:38:00,72.0,62.5,30.02,NW,304,0.0,0.0,72,0.00,,---,0.00,VWS V14.00,2013-07-13 01:38:00,
2013-07-12 20:43:00,71.6,62.5,30.02,NW,304,0.0,0.0,73,0.00,,---,0.00,VWS V14.00,2013-07-13 01:43:00,
2013-07-12 20:48:00,71.1,62.4,30.03,NW,304,0.0,0.0,74,0.00,,---,0.00,VWS V14.00,2013-07-13 01:48:00,
2013-07-12 20:53:00,70.8,62.1,30.03,NW,304,0.0,0.0,74,0.00,,---,0.00,VWS V14.00,2013-07-13 01:53:00,
2013-07-12 20:59:00,70.3,62.4,30.03,NW,304,0.0,0.0,76,0.00,,---,0.00,VWS V14.00,2013-07-13 01:59:00,
2013-07-12 21:04:00,69.9,62.0,30.03,NW,304,0.0,0.0,76,0.00,,---,0.00,VWS V14.00,2013-07-13 02:04:00,
2013-07-12 21:10:00,69.4,61.9,30.03,NW,304,0.0,0.0,77,0.00,,---,0.00,VWS V14.00,2013-07-13 02:10:00,
2013-07-12 21:15:00,69.1,61.6,30.03,NW,304,0.0,0.0,77,0.00,,---,0.00,VWS V14.00,2013-07-13 02:15:00,
2013-07-12 21:20:00,68.6,61.5,30.03,NW,304,0.0,0.0,78,0.00,,---,0.00,VWS V14.00,2013-07-13 02:20:00,
2013-07-12 21:25:00,68.4,62.3,30.03,NW,304,0.0,0.0,81,0.00,,---,0.00,VWS V14.00,2013-07-13 02:25:00,
2013-07-12 21:31:00,67.9,61.9,30.03,NW,304,0.0,0.0,81,0.00,,---,0.00,VWS V14.00,2013-07-13 02:31:00,
2013-07-12 21:36:00,67.4,61.4,30.03,NW,304,0.0,0.0,81,0.00,,---,0.00,VWS V14.00,2013-07-13 02:36:00,
2013-07-12 21:42:00,67.3,62.3,30.03,NW,304,0.0,0.0,84,0.00,,---,0.00,VWS V14.00,2013-07-13 02:42:00,
2013-07-12 21:47:00,67.1,62.5,30.03,NW,304,0.0,0.0,85,0.00,,---,0.00,VWS V14.00,2013-07-13 02:47:00,
2013-07-12 21:52:00,66.8,62.2,30.03,NW,304,0.0,0.0,85,0.00,,---,0.00,VWS V14.00,2013-07-13 02:52:00,
2013-07-12 21:57:00,66.4,62.1,30.03,NW,304,0.0,0.0,86,0.00,,---,0.00,VWS V14.00,2013-07-13 02:57:00,
2013-07-12 22:02:00,66.3,62.3,30.04,NW,304,0.0,0.0,87,0.00,,---,0.00,VWS V14.00,2013-07-13 03:02:00,
2013-07-12 22:07:00,66.0,62.0,30.04,NW,304,0.0,0.0,87,0.00,,---,0.00,VWS V14.00,2013-07-13 03:07:00,
2013-07-12 22:12:00,65.6,62.0,30.04,NW,304,0.0,0.0,88,0.00,,---,0.00,VWS V14.00,2013-07-13 03:12:00,
2013-07-12 22:17:00,65.5,61.9,30.04,NW,304,0.0,0.0,88,0.00,,---,0.00,VWS V14.00,2013-07-13 03:17:00,
2013-07-12 22:22:00,65.3,62.0,30.04,NW,304,0.0,0.0,89,0.00,,---,0.00,VWS V14.00,2013-07-13 03:22:00,
2013-07-12 22:28:00,65.2,61.9,30.04,NW,304,0.0,0.0,89,0.00,,---,0.00,VWS V14.00,2013-07-13 03:28:00,
2013-07-12 22:33:00,65.0,61.7,30.04,NW,304,0.0,0.0,89,0.00,,---,0.00,VWS V14.00,2013-07-13 03:33:00,
2013-07-12 22:38:00,64.8,61.5,30.04,NW,304,0.0,0.0,89,0.00,,---,0.00,VWS V14.00,2013-07-13 03:38:00,
2013-07-12 22:43:00,64.7,61.4,30.04,NW,304,0.0,0.0,89,0.00,,---,0.00,VWS V14.00,2013-07-13 03:43:00,
2013-07-12 22:48:00,64.5,61.5,30.04,NW,304,0.0,0.0,90,0.00,,---,0.00,VWS V14.00,2013-07-13 03:48:00,
2013-07-12 22:53:00,64.3,61.3,30.04,NW,304,0.0,0.0,90,0.00,,---,0.00,VWS V14.00,2013-07-13 03:53:00,
2013-07-12 22:58:00,64.2,61.2,30.04,NW,304,0.0,0.0,90,0.00,,---,0.00,VWS V14.00,2013-07-13 03:58:00,
2013-07-12 23:01:00,64.2,61.2,30.04,NW,304,0.0,0.0,90,0.00,,---,0.00,VWS V14.00,2013-07-13 04:01:00,
2013-07-12 23:02:00,64.2,61.2,30.04,NW,304,0.0,0.0,90,0.00,,---,0.00,VWS V14.00,2013-07-13 04:02:00,
2013-07-12 23:07:00,64.2,61.5,30.04,NW,304,0.0,0.0,91,0.00,,---,0.00,VWS V14.00,2013-07-13 04:07:00,
2013-07-12 23:12:00,64.0,61.3,30.04,NW,304,0.0,0.0,91,0.00,,---,0.00,VWS V14.00,2013-07-13 04:12:00,
2013-07-12 23:17:00,64.0,61.3,30.04,NW,304,0.0,0.0,91,0.00,,---,0.00,VWS V14.00,2013-07-13 04:17:00,
2013-07-12 23:22:00,63.9,61.2,30.04,NW,304,0.0,0.0,91,0.00,,---,0.00,VWS V14.00,2013-07-13 04:22:00,
2013-07-12 23:28:00,63.7,61.3,30.04,NW,304,0.0,0.0,92,0.00,,---,0.00,VWS V14.00,2013-07-13 04:28:00,
2013-07-12 23:33:00,63.5,61.1,30.03,NW,304,0.0,0.0,92,0.00,,---,0.00,VWS V14.00,2013-07-13 04:33:00,
2013-07-12 23:38:00,63.4,61.0,30.03,NW,304,0.0,0.0,92,0.00,,---,0.00,VWS V14.00,2013-07-13 04:38:00,
2013-07-12 23:43:00,63.2,60.8,30.03,NW,304,0.0,0.0,92,0.00,,---,0.00,VWS V14.00,2013-07-13 04:43:00,
2013-07-12 23:48:00,63.2,60.8,30.04,NW,304,0.0,0.0,92,0.00,,---,0.00,VWS V14.00,2013-07-13 04:48:00,
2013-07-12 23:53:00,63.2,60.8,30.04,NW,304,0.0,0.0,92,0.00,,---,0.00,VWS V14.00,2013-07-13 04:53:00,
2013-07-12 23:58:00,63.1,60.7,30.04,NW,304,0.0,0.0,92,0.00,,---,0.00,VWS V14.00,2013-07-13 04:58:00,